Weather in Trekhbaltayevo

Russia / Chuvash Republic     54°55′24″N   47°40′23″E
temp.,
°C
wind,
m/s
gust,
m/s
humid.,
%
clouds,
%
prec.,
mm/h
press.,
hPa
HPBL,
m
20 april, tue
tue2000:00+4e7134591 0.0 1028547
03:00+2e612565 0.0 1028379
06:00+2e614615 0.0 1029529
09:00+6ese911360 0.0 1029979
12:00+8se810310 0.0 10291361
15:00+10se810270 0.0 10271510
18:00+8ese81132100 0.0 10261283
21:00+6ese81537100 0.0 1025781
21 april, wed
wed2100:00+5se9164293 0.0 1024823
03:00+4se101948100 0.0 1023777
06:00+3se112053100 0.0 1020768
09:00+2se112075100 1.3 1020784
12:00+1se112087100 3.9 1020787
15:00+3sse101789100 4.2 1020755
18:00+3sse81591100 0.0 1020624
21:00+3sse71492100 0.0 1021574
22 april, thu
thu2200:00+3sse61295100 0.0 1021458
03:00+3sse61195100 0.0 1021425
06:00+3sse61197100 2.2 1021427
09:00+5s51092100 2.2 1022512
12:00+8ssw5883100 0.0 1022759
15:00+10sse5878100 0.0 1022523
18:00+10s6108093 0.1 1023437
21:00+7s4109332 0.1 1024237
23 april, fri
fri2300:00+7sse599211 0.0 1024168
03:00+7s3794100 0.0 1024154
06:00+7s35936 0.0 1025143
09:00+11s44715 0.0 1025528
12:00+14sse334812 0.0 10241667
15:00+15se5447100 0.1 10241264
18:00+12se586347 0.0 1024463
21:00+9se487681 0.0 1023228
24 april, sat
sat2400:00+8se378399 0.0 1023190
03:00+7se3687100 0.0 1022187
06:00+7se358699 0.0 1021189
09:00+10ese336834 0.0 1019543
12:00+13e33525 0.0 10171182
15:00+14se224425 0.0 10161760
18:00+13ese565826 0.0 1015508
21:00+9se5107987 0.0 1015307